COSMOS 2251 DEB, 35280

Orbit data source: Space-Track

COSMOS 2251 DEB, 35280 is space debris in LEO originally from a launch on Wed, 16 Jun 1993 UTC launched from the Plesetsk Missile And Space Complex (PKMTR). The debris from Iridium 33, an American commercial communications satellite, has been tracked extensively since its accidental collision with the defunct Russian satellite Cosmos 2251 in 2009. This event, occurring at high speed in low Earth orbit (LEO), generated thousands of pieces of space debris, significantly increasing the risk of further collisions. The Iridium 33 debris cloud has impacted space traffic management and orbital debris mitigation strategies, making it a subject of ongoing study in space situational awareness.

Loading next visibility...
Identifier
35280, 1993-036AJJ
Orbit
LEO
Country
Flag of CISCIS
Related business
Manufacturer
Unknown
Mission
Spacecraft
Bus & Motor
Unknown
Mass
Unknown
Launch date (UTC)
1993-06-16 (32 years ago)
Launch vehicle
Unknown
Launch site
Plesetsk Missile And Space Complex (PKMTR)
Object type
Payload
Rocket body
Debris
Shape & HBR
Unknown shape, 0.1 m
Radar Cross Section
Small (<0.1 m²)

Expand to show TLE details & history
Last TLE update: 1 day ago

TLE from 1 day ago
0 COSMOS 2251 DEB
1 35280U 93036AJJ 25298.96471296  .00244331  00000-0  69380-2 0  9994
2 35280  73.9919 169.1309 0016112 193.3555 166.7226 15.35008726868086
Epoch: 2025-10-25T23:09Z
TLE epoch observation values (Epoch: 2025-10-25T23:09:11.199Z)
Latitude
-0.00005°
Longitude
147.24652°
Altitude
474.349 km
Speed
7.623 km/s
True Right ascension
11h 16m 31s
True Declination
0° 00' 00"
Sunlit
Object was in daylight at epoch
Visualization orbit readout
Latitude
Unknown
Longitude
Unknown
Altitude
Unknown
Speed
Unknown
Apparent Right ascension
Unknown
Apparent Declination
Unknown
Sunlit
N/A
Visualization observer readout
Local Sidereal Time
21:57:18
Azimuth
Unknown
Elevation
Unknown
Doppler factor
Unknown
Orbital elements
Apogee altitude
469.429 km
Perigee altitude
447.399 km
Semi-major axis
6,836.551 km
Eccentricity
0.00161
Inclination
73.9919°
RAAN
169.1309°
Arg. of periapsis
193.3555°
True anomaly
166.76492°
Mean anomaly
166.7226°
Eccentric anomaly
166.74377°
Mean motion
3.83961 °/min
Orbital period
93.76 mins
BSTAR
0.006938
Loading maneuver chart data...
Computing Atmospheric mass density...

Documentation

Showing up to 5 results
|